When you browse on this site, cookies collect data to enhance your experience and personalize the content and advertising you see.
Visit our Privacy Policy to learn more. By continuing to use the site, you agree to this use of cookies and data.
  • en France
  • Liste des pays
  • À 7 jours
  • Température de l'eau
  • Carte météo
  • Widgets météo
  • user-avatar
    Se connecter

    Météo par heure à Nkongsamba

    Ce jour, 9 Avril, Jeudi

    Heure Température Précipitation Vent Pression Humidité
    00:00 +21°C° 0 mm 0 m/s 684 mmHg 96%
    01:00 +20°C° 0 mm 0 m/s 685 mmHg 95%
    02:00 +20°C° 0.1 mm 0 m/s 684 mmHg 96%
    03:00 +20°C° 0.1 mm 0 m/s 684 mmHg 96%
    04:00 +20°C° 0.1 mm 0 m/s 683 mmHg 97%
    05:00 +20°C° 0.1 mm 0 m/s 684 mmHg 96%
    06:00 +20°C° 0.1 mm 0 m/s 684 mmHg 95%
    07:00 +20°C° 0.1 mm 0 m/s 685 mmHg 95%
    08:00 +22°C° 0 mm 0 m/s 685 mmHg 87%
    09:00 +24°C° 0 mm 0 m/s 686 mmHg 79%
    10:00 +26°C° 0 mm 0 m/s 687 mmHg 71%
    11:00 +28°C° 0.6 mm 1 m/s 686 mmHg 70%
    12:00 +29°C° 0.6 mm 1 m/s 686 mmHg 69%
    13:00 +29°C° 0.6 mm 1 m/s 686 mmHg 69%
    14:00 +29°C° 1.3 mm 1 m/s 685 mmHg 71%
    15:00 +28°C° 1.3 mm 1 m/s 684 mmHg 74%
    16:00 +26°C° 1.3 mm 0 m/s 683 mmHg 76%
    17:00 +25°C° 1 mm 0 m/s 683 mmHg 81%
    18:00 +23°C° 1 mm 0 m/s 684 mmHg 86%
    19:00 +22°C° 1 mm 0 m/s 684 mmHg 91%
    20:00 +21°C° 0.8 mm 0 m/s 684 mmHg 92%
    21:00 +21°C° 0.8 mm 0 m/s 685 mmHg 93%
    22:00 +21°C° 0.8 mm 0 m/s 685 mmHg 94%
    23:00 +20°C° 0.6 mm 0 m/s 685 mmHg 94%

    Demain, 10 Avril, Vendredi

    Heure Température Précipitation Vent Pression Humidité
    00:00 +20°C° 0.6 mm 0 m/s 685 mmHg 94%
    01:00 +20°C° 0.6 mm 0 m/s 684 mmHg 93%
    02:00 +20°C° 0 mm 0 m/s 684 mmHg 93%
    03:00 +20°C° 0 mm 0 m/s 684 mmHg 93%
    04:00 +20°C° 0 mm 0 m/s 683 mmHg 93%
    05:00 +20°C° 0 mm 0 m/s 684 mmHg 92%
    06:00 +20°C° 0 mm 0 m/s 684 mmHg 91%
    07:00 +21°C° 0 mm 0 m/s 685 mmHg 90%
    08:00 +21°C° 0 mm 0 m/s 685 mmHg 90%
    09:00 +22°C° 0 mm 0 m/s 686 mmHg 90%
    10:00 +22°C° 0 mm 0 m/s 686 mmHg 89%
    11:00 +22°C° 0.1 mm 0 m/s 686 mmHg 88%
    12:00 +23°C° 0.1 mm 0 m/s 686 mmHg 87%
    13:00 +23°C° 0.1 mm 0 m/s 685 mmHg 85%
    14:00 +24°C° 0.4 mm 0 m/s 685 mmHg 83%
    15:00 +24°C° 0.4 mm 0 m/s 684 mmHg 81%
    16:00 +25°C° 0.4 mm 0 m/s 684 mmHg 79%
    17:00 +23°C° 0.5 mm 0 m/s 684 mmHg 83%
    18:00 +22°C° 0.5 mm 0 m/s 684 mmHg 88%
    19:00 +21°C° 0.5 mm 0 m/s 684 mmHg 92%
    20:00 +21°C° 0.3 mm 0 m/s 685 mmHg 93%
    21:00 +21°C° 0.3 mm 0 m/s 685 mmHg 94%
    22:00 +21°C° 0.3 mm 0 m/s 685 mmHg 95%
    23:00 +20°C° 0.6 mm 0 m/s 685 mmHg 95%

    Après-demain, 11 Avril, Samedi

    Heure Température Précipitation Vent Pression Humidité
    00:00 +20°C° 0.6 mm 0 m/s 685 mmHg 96%
    01:00 +20°C° 0.6 mm 0 m/s 685 mmHg 96%
    02:00 +20°C° 0.1 mm 0 m/s 684 mmHg 96%
    03:00 +19°C° 0.1 mm 0 m/s 684 mmHg 95%
    04:00 +21°C° 0.1 mm 1 m/s 684 mmHg 95%
    05:00 +19°C° 0.2 mm 0 m/s 684 mmHg 95%
    06:00 +20°C° 0.2 mm 0 m/s 685 mmHg 95%
    07:00 +20°C° 0.2 mm 0 m/s 685 mmHg 94%
    08:00 +23°C° 0.6 mm 1 m/s 686 mmHg 91%
    09:00 +25°C° 0.6 mm 1 m/s 686 mmHg 87%
    10:00 +26°C° 0.6 mm 1 m/s 687 mmHg 83%
    11:00 +27°C° 1 mm 1 m/s 686 mmHg 78%
    12:00 +28°C° 1 mm 1 m/s 686 mmHg 74%
    13:00 +29°C° 1 mm 1 m/s 686 mmHg 69%
    14:00 +28°C° 1.3 mm 1 m/s 685 mmHg 72%
    15:00 +28°C° 1.3 mm 1 m/s 684 mmHg 76%
    16:00 +27°C° 1.3 mm 1 m/s 684 mmHg 79%
    17:00 +26°C° 0.5 mm 1 m/s 684 mmHg 85%
    18:00 +25°C° 0.5 mm 1 m/s 684 mmHg 90%
    19:00 +21°C° 0.5 mm 0 m/s 685 mmHg 96%
    20:00 +21°C° 0.1 mm 0 m/s 685 mmHg 96%
    21:00 +21°C° 0.1 mm 0 m/s 685 mmHg 96%
    22:00 +21°C° 0.1 mm 0 m/s 686 mmHg 97%
    23:00 +21°C° 0.2 mm 0 m/s 685 mmHg 97%

    12 Avril, Dimanche

    Heure Température Précipitation Vent Pression Humidité
    00:00 +21°C° 0.2 mm 0 m/s 685 mmHg 97%
    01:00 +20°C° 0.2 mm 0 m/s 685 mmHg 97%
    02:00 +20°C° 0.2 mm 0 m/s 685 mmHg 97%
    03:00 +20°C° 0.2 mm 0 m/s 684 mmHg 97%
    04:00 +20°C° 0.2 mm 0 m/s 684 mmHg 96%
    05:00 +20°C° 0 mm 0 m/s 684 mmHg 96%
    06:00 +21°C° 0 mm 0 m/s 685 mmHg 95%
    07:00 +21°C° 0 mm 0 m/s 685 mmHg 94%
    08:00 +23°C° 0 mm 0 m/s 686 mmHg 86%
    09:00 +25°C° 0 mm 0 m/s 686 mmHg 78%
    10:00 +29°C° 0 mm 1 m/s 687 mmHg 70%
    11:00 +30°C° 0.2 mm 1 m/s 687 mmHg 65%
    12:00 +31°C° 0.2 mm 1 m/s 686 mmHg 59%
    13:00 +32°C° 0.2 mm 1 m/s 686 mmHg 53%
    14:00 +31°C° 1.1 mm 1 m/s 685 mmHg 58%
    15:00 +30°C° 1.1 mm 1 m/s 684 mmHg 63%
    16:00 +29°C° 1.1 mm 1 m/s 684 mmHg 68%
    17:00 +27°C° 1.1 mm 1 m/s 684 mmHg 75%
    18:00 +26°C° 1.1 mm 1 m/s 684 mmHg 83%
    19:00 +24°C° 1.1 mm 1 m/s 684 mmHg 90%
    20:00 +21°C° 0.1 mm 0 m/s 684 mmHg 92%
    21:00 +21°C° 0.1 mm 0 m/s 685 mmHg 94%
    22:00 +21°C° 0.1 mm 0 m/s 685 mmHg 95%
    23:00 +21°C° 0.1 mm 0 m/s 685 mmHg 96%

    13 Avril, Lundi

    Heure Température Précipitation Vent Pression Humidité
    00:00 +20°C° 0.1 mm 0 m/s 685 mmHg 96%
    01:00 +20°C° 0.1 mm 0 m/s 684 mmHg 96%
    02:00 +20°C° 0 mm 0 m/s 684 mmHg 97%
    03:00 +20°C° 0 mm 0 m/s 684 mmHg 97%
    04:00 +22°C° 0 mm 1 m/s 684 mmHg 98%
    05:00 +22°C° 0.1 mm 1 m/s 684 mmHg 97%
    06:00 +21°C° 0.1 mm 0 m/s 685 mmHg 97%
    07:00 +21°C° 0.1 mm 0 m/s 685 mmHg 96%
    08:00 +23°C° 0.1 mm 0 m/s 686 mmHg 87%
    09:00 +25°C° 0.1 mm 0 m/s 686 mmHg 78%
    10:00 +27°C° 0.1 mm 0 m/s 687 mmHg 69%
    11:00 +28°C° 0.5 mm 0 m/s 687 mmHg 65%
    12:00 +31°C° 0.5 mm 1 m/s 686 mmHg 61%
    13:00 +32°C° 0.5 mm 1 m/s 685 mmHg 56%
    14:00 +31°C° 1.6 mm 1 m/s 685 mmHg 60%
    15:00 +28°C° 1.6 mm 0 m/s 684 mmHg 63%
    16:00 +28°C° 1.6 mm 0 m/s 684 mmHg 67%
    17:00 +26°C° 1.1 mm 0 m/s 684 mmHg 75%
    18:00 +24°C° 1.1 mm 0 m/s 684 mmHg 83%
    19:00 +22°C° 1.1 mm 0 m/s 684 mmHg 91%
    20:00 +22°C° 0.6 mm 0 m/s 684 mmHg 92%
    21:00 +21°C° 0.6 mm 0 m/s 685 mmHg 93%
    22:00 +21°C° 0.6 mm 0 m/s 685 mmHg 94%
    23:00 +21°C° 0.2 mm 0 m/s 685 mmHg 94%

    14 Avril, Mardi

    Heure Température Précipitation Vent Pression Humidité
    00:00 +21°C° 0.2 mm 0 m/s 685 mmHg 94%
    01:00 +21°C° 0.2 mm 0 m/s 684 mmHg 94%
    02:00 +21°C° 0.3 mm 0 m/s 684 mmHg 95%
    03:00 +20°C° 0.3 mm 0 m/s 684 mmHg 95%
    04:00 +20°C° 0.3 mm 0 m/s 683 mmHg 96%
    05:00 +21°C° 0 mm 0 m/s 684 mmHg 95%
    06:00 +21°C° 0 mm 0 m/s 684 mmHg 94%
    07:00 +21°C° 0 mm 0 m/s 684 mmHg 94%
    08:00 +22°C° 0.1 mm 0 m/s 685 mmHg 88%
    09:00 +24°C° 0.1 mm 0 m/s 686 mmHg 83%
    10:00 +27°C° 0.1 mm 1 m/s 686 mmHg 77%
    11:00 +28°C° 0.7 mm 1 m/s 686 mmHg 76%
    12:00 +28°C° 0.7 mm 1 m/s 686 mmHg 74%
    13:00 +29°C° 0.7 mm 1 m/s 685 mmHg 72%
    14:00 +27°C° 0.8 mm 0 m/s 685 mmHg 73%
    15:00 +27°C° 0.8 mm 0 m/s 684 mmHg 74%
    16:00 +26°C° 0.8 mm 0 m/s 684 mmHg 76%
    17:00 +25°C° 1.5 mm 0 m/s 684 mmHg 81%
    18:00 +23°C° 1.5 mm 0 m/s 684 mmHg 87%
    19:00 +22°C° 1.5 mm 0 m/s 684 mmHg 92%
    20:00 +22°C° 0.1 mm 0 m/s 684 mmHg 93%
    21:00 +22°C° 0.1 mm 0 m/s 684 mmHg 94%
    22:00 +23°C° 0.1 mm 1 m/s 684 mmHg 94%
    23:00 +21°C° 0.1 mm 0 m/s 684 mmHg 95%
    Voir plus